Location: Peebles
(55.6412°N, 3.1714°W)
Time: 01:53:45
(UTC+01:00)

FENGYUN 1C DEB - Pass Details

Date: 11 July 2022
Orbit: 580 x 1160 km, 99.3° (Epoch: 11 August)

Event Time Altitude Azimuth Distance (km) Brightness Sun altitude
Exits shadow 01:24:14 16° 191° (S) 2,341 ? -12.2°
Maximum altitude 01:29:09 50° 262° (W) 1,333 ? -12.2°
Drops below altitude 10° 01:35:52 10° 337° (NNW) 3,026 ? -12.1°
Sets 01:38:41 0° 342° (NNW) 4,024 ? -12.1°
